RH
23 25 27 27 26 24 19 17 15 13 15 14 14 17 19 23 27 27 25 24 26 28 30 33 36 38 36 34 41 49 56 67 68 64 49 27 23 24 17 19 19 18 40 57 58 61 58 55 53 52 50 43 40 38 45 52 50 55 57 55 49 41 39 37 36 35 35 36 41 45 42 43 45 44 42 40 41 40 41 41 39 39 39 39 42 46 48 51
22 24 25 27 27 25 21 18 14 14 17 17 18 20 22 26 28 26 24 22 23 24 26 29 34 41 42 37 36 43 64 75 61 48 40 31 33 35 25 20 21 20 39 54 54 54 50 50 50 48 44 37 35 37 43 47 47 53 52 51 46 39 38 35 36 35 33 35 39 43 40 40 41 42 41 41 44 42 45 45 43 46 45 43 45 49 50 51
21 23 24 26 27 26 23 18 14 13 17 22 24 26 27 27 27 24 21 20 20 21 22 24 30 37 43 41 34 45 69 67 47 37 38 42 42 43 34 23 26 23 32 51 48 45 44 45 47 43 40 36 32 36 42 43 46 48 46 49 43 38 37 34 36 35 33 34 37 40 39 39 38 38 39 41 43 43 45 45 46 50 49 45 46 48 50 51
21 23 23 25 26 27 25 19 14 12 16 25 28 30 29 26 26 23 20 18 17 18 18 21 28 31 39 40 35 57 75 52 30 26 33 44 40 43 39 25 30 28 30 46 43 39 39 41 44 38 36 33 29 34 39 39 43 44 44 46 42 38 38 36 35 34 33 33 35 38 39 40 36 36 38 39 42 42 40 40 42 46 46 46 46 47 48 50
22 22 23 25 26 26 25 20 14 12 18 26 30 31 29 27 25 22 21 18 17 17 16 26 32 29 35 35 36 63 64 29 18 25 31 38 33 38 37 24 33 38 36 42 39 35 38 41 40 36 33 28 27 32 33 35 39 42 41 40 39 37 39 39 34 34 33 31 36 38 39 39 35 37 37 37 44 42 35 35 37 40 44 45 45 46 46 47
22 22 23 24 26 26 25 20 14 13 19 27 30 30 28 27 23 22 22 19 18 16 18 31 33 30 34 33 44 67 47 11 18 34 32 30 31 38 33 24 35 46 43 39 37 35 38 40 34 34 29 21 27 27 24 30 37 42 39 36 37 35 41 41 34 35 33 30 36 37 36 36 36 40 36 36 42 39 31 32 36 38 43 44 45 45 44 44
22 22 22 24 25 27 25 21 15 14 20 27 28 27 28 26 23 22 20 20 20 16 23 32 31 31 34 42 58 58 29 8 24 39 34 31 34 36 28 25 41 51 47 41 38 37 37 36 30 28 23 18 24 20 20 29 36 41 37 34 36 34 38 38 35 35 31 31 31 31 34 36 39 39 37 38 37 34 31 32 36 39 42 43 44 44 43 45
22 22 22 24 25 26 26 21 16 15 20 25 24 24 26 25 23 21 19 21 18 17 27 30 29 31 35 53 54 30 14 17 30 33 36 42 37 34 30 34 49 53 49 41 35 34 32 30 26 22 19 16 17 17 23 30 33 38 35 32 34 33 34 33 33 33 30 29 27 30 34 35 36 34 38 41 35 33 34 35 38 40 42 42 43 44 44 46
21 23 22 23 25 26 26 22 18 17 20 22 20 20 22 24 23 19 18 19 18 23 30 30 30 30 37 54 38 12 14 25 30 25 34 48 42 42 43 41 50 51 44 37 30 31 27 26 23 18 15 13 14 18 24 27 28 32 31 29 31 31 31 30 31 30 29 28 26 31 34 32 32 32 37 37 34 36 36 37 39 41 43 43 43 43 45 46
21 23 22 23 25 27 26 22 19 17 19 19 18 19 19 20 18 16 18 19 23 30 33 32 32 34 45 49 25 12 19 24 29 24 31 48 46 47 47 41 48 46 37 33 30 28 24 23 19 15 14 12 14 16 21 23 22 26 28 28 29 29 29 29 30 29 29 27 26 30 32 30 30 33 36 31 33 37 38 40 40 42 44 43 43 43 45 45
22 24 23 23 25 27 28 23 18 18 19 20 20 19 17 16 15 16 20 25 33 36 36 36 35 43 51 39 19 14 18 21 25 23 29 44 46 44 42 40 45 41 33 31 30 27 23 20 16 15 13 12 14 14 18 19 17 22 25 25 25 25 26 27 29 29 28 27 25 27 29 28 30 36 34 28 33 37 39 42 42 43 44 43 43 42 45 45
21 24 24 24 26 27 27 22 17 18 19 21 20 17 16 15 15 19 27 36 40 36 38 39 39 51 51 33 22 18 18 21 22 24 25 31 38 39 39 40 41 38 33 29 27 26 24 19 17 16 12 10 12 12 14 15 14 17 19 22 22 22 24 24 26 27 27 26 23 25 30 29 33 37 31 29 35 37 39 42 43 44 43 44 43 43 46 45
24 26 28 29 29 29 28 21 17 18 20 21 19 19 18 17 20 28 39 41 36 36 42 43 46 59 50 27 21 23 25 26 26 27 21 22 30 34 38 39 37 36 32 28 26 26 23 20 19 16 11 10 10 11 12 11 13 14 14 17 18 21 24 23 24 25 25 25 21 26 35 33 32 32 27 30 36 36 40 42 42 43 43 44 43 44 47 45
31 31 34 36 35 34 30 22 18 18 20 20 21 21 19 21 28 36 43 40 35 41 46 47 57 65 47 24 19 23 24 26 30 27 17 19 26 31 39 40 36 34 33 29 26 25 24 21 19 14 11 10 11 12 11 10 13 12 13 14 15 20 23 22 23 24 25 24 21 25 34 32 29 29 26 29 35 36 39 41 41 42 43 44 44 45 46 45
35 34 37 40 40 38 32 23 19 19 20 21 23 23 22 28 36 43 46 41 39 47 55 60 69 63 36 19 20 21 22 25 27 20 14 17 18 25 38 41 36 31 30 29 26 26 25 22 19 16 12 10 12 13 10 10 12 12 13 14 13 17 22 22 22 24 25 23 21 26 34 32 25 24 25 29 34 34 36 39 40 42 43 44 45 45 46 45
37 36 39 41 42 40 32 24 19 20 21 23 25 22 24 33 42 49 48 42 48 64 72 65 62 57 30 14 17 21 20 18 16 13 16 17 12 22 37 38 33 27 25 26 26 26 23 20 18 15 14 12 13 13 10 10 11 12 13 13 13 15 20 24 22 22 23 23 23 25 33 33 26 23 25 29 33 32 33 37 39 41 42 44 45 45 45 45
39 36 39 41 40 38 30 24 21 21 22 24 27 23 29 41 48 54 50 51 65 78 78 57 51 54 29 12 16 16 12 10 12 12 14 14 11 23 36 32 26 24 22 22 25 24 20 19 17 16 15 14 12 11 13 14 12 12 12 12 12 13 17 23 23 21 21 23 24 25 28 30 27 25 27 28 30 30 31 35 38 40 42 44 44 44 44 45
42 37 38 40 40 36 29 24 22 22 22 24 26 22 30 44 50 57 57 60 71 76 71 55 49 46 22 11 13 10 10 11 12 12 13 14 13 25 34 27 22 21 19 20 22 22 19 18 17 17 16 16 14 11 14 14 11 11 13 13 12 12 16 20 23 22 21 23 24 26 27 27 24 24 30 28 26 30 30 31 36 38 41 44 44 43 44 44
43 36 37 39 39 35 28 25 24 24 21 22 26 24 32 46 51 54 48 40 42 44 41 31 27 25 14 12 11 9 12 11 11 13 15 16 17 28 32 25 21 19 19 20 21 21 20 19 20 20 17 16 14 11 11 11 9 9 11 13 12 13 15 17 20 19 20 23 24 24 26 30 28 24 29 27 24 28 29 29 34 37 40 43 44 43 43 44
43 35 34 38 38 34 28 26 26 25 23 25 29 26 29 36 34 32 25 15 15 17 16 13 12 14 12 11 10 11 12 10 12 12 15 18 21 29 30 23 20 18 18 18 18 19 19 21 23 21 16 13 12 11 10 9 12 13 12 13 12 12 14 14 17 17 18 22 23 23 23 29 29 22 22 24 25 27 28 29 33 37 40 42 44 43 44 45
42 36 32 35 36 32 27 27 27 25 25 28 27 22 22 25 21 21 20 14 11 12 13 14 13 12 12 12 11 12 12 11 11 10 15 20 24 30 28 24 22 20 18 15 15 16 19 23 21 17 13 12 12 11 11 10 12 14 14 15 14 13 13 11 13 15 16 20 23 22 22 24 24 20 18 21 26 27 26 29 33 37 39 41 43 43 44 44
41 39 32 33 34 32 28 27 28 25 26 28 23 20 23 27 29 30 28 18 12 13 14 13 14 13 10 12 12 12 13 12 11 11 14 17 24 29 27 24 23 20 17 15 16 17 20 20 17 15 12 11 12 11 12 11 11 14 14 15 16 13 13 12 13 15 15 19 22 21 23 22 21 20 18 18 24 27 26 26 31 37 39 41 42 43 44 45
43 42 34 32 31 31 29 27 30 28 28 27 22 23 27 32 36 35 31 22 15 14 13 12 13 11 8 11 12 12 12 12 13 12 12 15 21 25 26 25 22 19 17 16 17 19 20 16 12 12 11 11 13 11 12 12 12 13 11 12 14 13 14 14 14 16 16 17 20 20 21 21 19 20 18 16 20 25 26 25 27 33 38 40 39 41 43 45
47 45 38 33 29 29 28 26 30 32 32 29 25 28 34 36 38 36 28 19 14 14 13 13 13 11 9 11 11 11 12 12 13 13 12 13 16 20 24 24 22 19 17 16 16 17 16 12 10 11 11 12 13 13 13 13 12 10 8 9 11 13 15 15 15 16 15 15 17 19 23 22 20 20 19 16 18 23 24 24 27 31 35 37 37 39 41 43
51 48 40 34 30 28 25 25 28 31 32 28 26 31 36 39 42 40 30 19 15 15 14 14 13 11 10 10 11 10 12 12 11 13 14 14 14 16 19 22 23 21 18 16 16 15 12 10 11 11 12 13 13 13 11 11 10 9 8 8 9 12 15 15 16 16 18 18 15 17 26 28 21 20 20 17 18 21 22 24 29 32 35 37 38 39 40 41
52 48 41 35 32 28 25 26 29 30 29 24 25 32 35 40 45 42 31 19 14 14 14 13 11 11 10 10 9 9 13 13 10 12 14 16 15 15 17 19 22 22 19 17 16 14 11 10 12 13 13 14 12 11 9 10 10 9 8 7 8 10 15 18 17 18 20 20 14 14 24 27 22 20 20 17 18 21 24 26 28 32 36 38 38 39 40 40
51 46 42 34 34 36 31 31 32 29 25 23 28 35 37 43 47 40 27 19 15 14 13 11 10 11 10 9 8 10 15 14 11 12 14 16 16 14 15 16 20 22 19 19 19 15 11 11 14 14 13 12 11 10 9 9 10 9 7 7 8 8 12 17 18 18 19 17 16 14 18 24 24 20 18 17 18 20 25 28 28 31 36 38 37 37 39 39
48 44 41 32 33 41 38 39 38 28 25 29 34 37 40 47 47 35 24 20 17 14 12 12 11 11 9 9 9 10 14 13 13 14 13 16 16 14 14 14 17 19 17 22 24 16 12 12 14 15 13 11 11 10 9 9 10 9 7 8 9 7 8 11 15 18 17 19 23 19 17 23 25 19 17 17 18 20 24 27 28 28 32 37 37 35 37 38
46 44 40 29 34 42 39 44 43 31 31 36 37 39 41 44 38 25 21 21 17 14 13 12 11 11 10 9 10 10 12 13 14 14 13 15 16 14 15 13 13 15 16 21 22 16 14 13 12 14 14 12 10 10 9 9 10 8 8 11 11 9 8 7 11 16 19 25 28 21 17 23 24 18 16 18 20 22 22 22 24 25 28 34 36 34 35 37
43 44 40 33 42 46 43 46 42 35 36 38 38 38 36 34 27 22 23 22 17 14 12 12 12 12 11 10 11 11 11 13 14 14 15 15 14 13 14 13 13 14 14 18 20 17 15 14 13 14 14 11 10 11 11 10 10 9 9 12 12 11 9 8 9 13 22 29 27 21 17 20 24 20 15 17 19 19 18 18 21 22 25 31 34 32 33 36
40 42 41 39 44 44 40 37 34 36 37 37 37 33 27 24 20 21 25 19 15 15 13 13 14 12 12 12 12 11 11 13 14 15 17 16 15 15 15 16 16 15 15 17 19 17 15 17 17 15 14 12 11 12 12 11 11 10 10 12 14 14 13 13 12 15 24 29 23 18 17 19 25 22 15 14 15 15 15 15 18 20 23 29 32 30 30 34
38 40 41 40 39 41 40 34 35 39 36 35 35 26 20 21 19 19 20 16 16 17 14 15 15 13 14 13 13 13 12 12 12 16 18 18 19 18 19 20 20 21 20 16 17 18 17 17 17 16 15 14 14 14 14 13 12 12 12 14 16 18 21 22 19 19 23 23 18 16 17 20 23 20 15 13 13 14 14 13 14 17 22 26 29 30 29 32
37 38 39 37 36 41 42 38 41 43 38 36 31 20 17 22 23 20 16 15 17 16 14 15 14 14 14 14 15 14 13 13 12 14 18 19 21 21 20 20 20 23 23 18 17 17 17 16 14 16 17 15 15 16 17 16 15 13 13 16 17 20 28 29 23 21 22 18 15 14 16 20 19 16 14 14 12 12 13 13 13 15 18 21 25 28 28 30
35 36 38 39 42 45 42 40 43 43 40 34 24 18 20 23 25 21 17 16 16 15 14 15 15 15 15 16 17 15 14 15 12 12 16 17 21 24 23 22 21 22 22 21 19 17 19 19 15 15 16 16 16 15 15 14 14 14 12 14 15 16 24 27 21 20 20 16 14 13 15 19 18 15 13 12 12 12 12 12 13 14 15 16 20 24 26 28
36 39 39 43 45 42 39 39 41 41 38 28 20 20 23 24 23 19 18 17 15 15 15 15 15 15 16 16 17 16 15 15 13 13 15 17 22 27 26 24 22 22 24 24 20 17 19 19 15 14 14 15 16 15 13 13 15 15 11 13 15 13 16 19 18 16 16 16 14 13 14 15 13 13 12 11 12 11 12 12 12 13 13 14 16 19 23 26
46 47 43 43 39 33 36 38 38 39 33 23 21 22 22 25 23 18 20 18 15 16 15 15 16 16 17 17 17 17 16 16 15 14 16 19 23 27 27 25 22 21 25 28 26 24 23 19 16 17 16 14 16 14 12 14 15 15 15 16 14 11 12 16 18 15 16 20 17 14 15 14 12 12 11 12 12 11 11 11 10 11 12 14 14 15 20 23
59 53 42 37 33 32 36 37 36 35 27 20 24 25 22 24 23 20 21 18 15 16 15 17 18 18 19 18 17 18 16 15 16 15 15 18 24 29 29 26 22 20 22 27 29 27 27 24 18 18 19 16 15 15 13 13 13 15 17 15 12 12 13 15 19 18 20 22 18 13 15 15 15 14 11 10 11 11 10 10 10 10 11 13 12 14 18 20
72 56 42 33 32 33 34 35 33 28 22 22 29 30 23 22 22 20 20 17 16 17 17 19 20 20 20 20 19 19 18 17 17 17 17 17 25 31 31 28 25 20 18 23 28 26 26 28 22 17 19 17 16 18 18 15 13 14 15 13 13 18 19 18 22 23 22 22 19 14 12 12 13 13 11 10 9 8 8 9 10 9 10 12 11 13 18 18
67 49 37 30 32 32 31 33 30 21 20 25 31 30 25 23 23 20 18 18 17 17 19 20 20 20 20 21 21 20 20 20 19 20 20 19 25 29 29 29 26 22 18 20 26 25 25 30 26 17 17 19 18 19 21 19 15 14 15 13 13 17 19 20 21 22 21 22 20 17 14 12 12 10 9 10 9 7 8 8 9 8 9 10 11 14 17 18
50 38 32 30 34 32 29 30 26 20 24 29 30 29 26 24 23 20 19 19 18 19 21 21 21 22 23 22 21 20 22 22 21 22 21 19 23 28 28 27 25 23 20 19 23 25 27 33 32 22 17 21 22 20 19 18 16 17 18 18 17 15 15 17 19 17 18 21 22 21 18 14 11 9 7 9 9 8 8 8 9 9 8 8 11 13 15 17
42 37 32 30 35 33 28 26 25 23 27 30 30 31 32 29 24 22 20 18 19 19 19 21 22 22 23 23 21 21 23 21 20 21 21 18 21 26 28 26 24 23 22 21 22 25 29 34 34 26 21 22 20 16 16 16 16 17 17 18 18 16 16 21 23 18 15 18 20 21 21 15 10 9 8 8 8 8 8 9 8 8 8 8 10 11 13 17
41 37 35 33 35 33 27 26 28 27 29 33 33 32 34 33 27 25 24 21 21 21 19 21 23 22 24 24 23 23 23 21 21 21 21 21 21 23 25 25 24 22 23 24 22 25 34 38 37 32 26 22 18 16 17 18 17 18 17 16 16 16 18 22 25 21 17 18 17 17 21 17 10 10 10 9 8 7 6 7 7 7 7 8 8 9 12 17
40 40 36 34 34 31 27 30 32 31 32 34 33 31 32 32 29 27 27 25 23 23 23 22 24 25 25 26 25 23 23 25 24 22 22 24 23 24 25 24 25 23 22 25 28 34 40 40 39 37 30 25 21 17 17 17 18 20 18 16 17 17 17 19 22 22 22 20 18 20 24 18 12 11 11 9 9 8 7 8 8 8 7 7 8 8 10 16
44 42 34 32 33 29 28 34 35 35 36 34 32 33 32 32 33 32 31 31 28 26 25 25 27 27 26 27 27 25 26 30 30 26 27 27 24 26 28 24 26 25 22 27 36 42 45 43 41 41 36 31 26 22 21 21 20 19 18 18 19 19 20 22 22 25 28 25 20 22 23 18 13 13 13 11 9 8 8 8 8 9 9 8 9 11 15 20
47 42 33 31 31 29 32 35 34 35 38 37 37 37 33 32 36 35 33 33 31 28 28 29 29 27 27 29 30 29 29 31 32 31 30 28 24 25 28 27 28 26 24 32 37 38 43 48 49 50 42 32 30 32 30 29 24 20 19 21 23 22 22 24 25 28 31 28 24 23 22 17 14 14 15 13 11 9 8 8 8 8 9 8 9 13 19 25
45 43 41 35 29 30 35 33 31 35 37 37 39 38 34 34 35 34 33 34 32 29 29 29 28 30 33 35 37 37 32 29 32 34 35 33 28 26 29 30 29 26 29 38 37 33 37 42 47 54 49 38 40 42 34 30 28 24 23 24 24 22 22 24 27 27 28 28 27 25 23 19 16 16 16 14 11 10 8 8 9 9 10 10 12 16 19 22
45 49 49 47 38 33 35 32 33 38 38 38 41 42 38 36 36 36 36 36 36 32 31 33 33 36 41 44 44 42 38 35 36 38 39 36 31 29 29 28 27 29 33 36 32 30 36 38 38 44 45 39 39 36 27 25 28 27 26 26 24 23 24 26 27 27 29 32 29 25 25 24 19 16 15 14 14 13 11 11 12 12 12 12 14 18 17 17
47 48 47 52 48 40 41 41 37 37 36 36 40 42 40 38 41 44 40 36 36 34 36 41 41 41 44 48 48 48 49 48 44 44 45 42 38 35 33 30 27 29 31 30 26 28 35 36 31 32 35 32 29 26 23 25 27 26 26 26 24 24 26 27 27 25 28 34 34 30 31 29 22 15 13 17 21 19 18 18 15 13 16 18 19 20 15 12
49 49 46 46 44 42 45 44 38 35 37 40 43 43 42 42 45 47 42 39 40 39 41 45 45 43 45 49 52 55 57 55 52 52 51 48 46 43 41 38 31 27 28 29 28 29 32 35 33 31 34 32 27 26 24 23 26 26 25 25 24 24 24 25 26 23 25 32 31 29 34 31 21 18 22 25 26 22 19 19 18 19 24 26 26 23 16 13
55 59 58 50 44 43 41 39 38 37 38 42 47 47 46 47 49 48 44 42 46 46 45 45 45 44 45 49 54 55 52 51 54 53 50 50 50 46 44 41 34 30 31 32 32 32 34 37 34 34 40 39 31 27 24 23 27 28 24 23 23 24 24 23 24 23 24 29 29 30 36 29 17 24 37 36 28 23 21 22 27 31 34 36 34 29 25 25
63 65 67 61 55 50 43 39 40 40 39 41 48 51 50 50 51 50 45 41 44 47 46 45 46 46 45 48 52 50 44 43 47 44 41 44 44 41 41 39 35 35 36 34 34 34 35 36 32 33 42 40 30 28 24 22 25 26 25 26 24 24 26 23 22 25 27 31 36 36 33 29 27 38 47 40 29 25 24 27 36 41 43 45 44 40 39 39
70 67 65 65 62 54 45 43 42 42 43 46 51 54 51 49 49 51 51 48 43 43 44 46 47 49 50 51 50 45 40 38 38 36 34 35 34 33 35 34 33 36 38 37 36 34 35 38 36 36 40 36 28 26 24 25 30 31 28 25 22 24 25 20 26 42 46 41 40 39 35 39 48 53 51 46 42 40 37 38 45 50 51 51 49 47 47 46
Wind_Speed
31 30 30 29 28 27 26 25 24 23 22 21 19 16 14 15 15 15 14 14 14 14 15 15 15 14 13 12 10 11 9 8 7 8 13 11 7 9 9 6 15 21 26 23 21 21 18 16 15 15 12 8 7 6 8 7 5 4 4 5 4 1 2 3 4 5 2 5 10 11 11 9 10 10 7 8 8 9 9 6 7 7 6 8 16 26 32 32
32 31 30 30 28 27 27 25 24 22 22 21 19 16 15 14 15 15 15 15 15 14 14 15 15 13 13 10 9 9 7 7 10 13 13 8 9 7 9 10 17 24 27 23 25 25 20 17 17 15 10 6 5 6 7 7 7 6 4 5 3 1 4 4 4 4 3 3 7 10 11 8 9 11 9 9 10 11 10 9 9 10 11 13 20 28 32 33
32 32 31 30 29 28 27 26 24 22 21 20 19 17 15 14 14 14 15 15 15 14 14 15 14 13 12 9 7 7 6 8 9 7 4 7 13 10 7 15 21 27 27 23 25 25 20 19 20 16 10 7 6 6 7 7 7 7 5 5 1 3 3 3 2 3 4 3 4 9 10 8 9 10 9 9 10 12 10 10 11 11 14 16 20 26 31 32
33 33 33 32 30 29 27 26 24 22 20 20 19 18 16 15 15 15 15 15 14 13 14 15 14 14 11 8 5 4 6 8 2 3 6 13 15 11 7 19 25 29 26 20 22 20 17 17 18 14 9 8 6 7 8 7 7 6 7 5 2 2 2 3 3 5 5 3 2 8 9 9 9 9 9 9 9 10 9 10 12 13 17 18 21 24 29 30
33 33 34 33 32 29 28 26 24 22 19 19 19 19 17 16 15 15 15 15 13 13 15 15 13 12 10 6 4 2 6 4 2 8 15 13 10 8 10 23 28 29 23 18 20 18 16 16 15 12 8 7 7 7 9 10 7 5 8 7 2 2 2 4 3 4 5 3 1 7 9 8 8 9 9 10 7 2 5 11 11 15 19 20 22 24 27 27
34 34 34 34 33 30 28 26 24 21 18 19 19 19 18 17 16 16 16 15 14 14 15 13 9 8 7 5 3 3 7 1 5 12 20 14 6 6 15 28 29 25 20 19 20 17 16 16 14 11 9 8 9 9 9 12 10 6 7 8 6 5 2 2 3 2 5 2 2 4 7 7 8 9 8 9 5 3 2 11 13 16 20 23 25 24 25 25
34 34 34 35 34 31 29 26 23 20 18 18 19 19 19 18 17 17 17 16 14 15 13 8 5 5 6 4 1 6 8 2 6 13 21 19 9 6 22 30 29 24 20 21 20 18 17 17 15 11 10 9 10 11 8 10 12 9 7 6 6 7 6 5 4 3 4 2 1 1 5 7 9 8 7 7 5 3 6 11 14 17 20 23 24 23 23 24
35 35 35 35 34 32 29 26 23 19 17 18 19 19 19 19 18 18 18 16 15 15 9 3 3 4 5 2 4 6 5 2 7 13 19 17 9 15 25 25 27 23 21 23 21 19 17 18 17 12 11 9 8 10 7 8 12 13 11 6 4 6 7 6 5 5 5 3 2 2 5 7 9 7 7 8 7 4 9 13 15 17 20 21 22 23 22 22
35 35 35 35 34 32 29 26 23 19 17 18 19 19 19 19 19 19 17 15 14 12 4 1 2 4 3 2 7 6 1 5 4 12 14 9 8 16 19 20 25 22 21 22 21 20 16 15 17 12 9 9 8 9 9 8 7 10 13 10 6 7 6 6 6 7 5 3 2 4 7 7 8 8 6 10 10 8 11 14 16 18 19 19 20 21 21 22
36 36 35 35 34 32 29 26 22 19 18 19 20 20 20 19 20 18 15 13 10 5 1 1 2 2 1 4 8 4 5 4 3 10 11 5 7 13 14 17 24 22 20 21 20 21 16 13 16 11 6 7 8 8 10 9 3 2 9 11 11 11 8 8 8 8 7 5 5 6 7 6 8 8 6 10 13 12 14 15 17 17 18 19 19 20 20 21
35 35 35 34 34 32 29 25 21 19 19 20 20 20 21 20 18 14 11 9 4 2 1 1 1 0 4 6 7 2 5 4 5 8 8 3 5 11 13 15 21 22 19 18 20 21 18 15 14 8 4 4 7 8 9 11 7 3 5 8 11 12 11 11 11 10 8 6 7 8 7 6 8 9 6 9 14 14 14 16 17 16 16 17 18 19 17 18
34 35 34 34 33 31 27 23 20 18 19 19 20 22 21 17 12 9 7 4 4 4 3 2 1 1 6 6 4 4 5 4 5 6 5 2 3 8 10 13 19 20 17 16 18 20 19 14 13 12 4 1 5 6 6 10 11 8 8 9 9 10 11 13 13 12 10 7 7 7 8 8 9 11 9 9 14 14 14 15 16 15 14 16 17 16 15 17
35 35 35 35 34 31 26 22 18 18 19 19 21 21 17 12 8 5 3 4 7 9 4 3 2 3 7 3 2 4 3 3 3 3 5 3 1 6 8 12 18 18 15 15 16 18 18 12 13 15 6 3 5 1 3 7 9 10 9 9 9 8 10 13 14 13 12 8 8 8 7 7 10 13 11 11 14 15 14 15 15 15 14 14 15 15 15 18
36 36 37 37 35 31 25 20 17 17 17 19 22 18 14 11 6 2 2 4 11 9 1 1 2 4 6 1 4 2 4 4 3 3 5 2 1 4 8 9 16 17 12 13 14 15 15 11 12 13 8 7 4 1 4 6 7 9 9 8 8 7 8 13 15 15 13 10 10 10 6 5 10 13 13 13 16 15 14 15 15 14 14 14 15 15 15 17
36 37 38 37 35 30 24 18 15 16 16 20 21 15 12 9 3 0 0 7 12 5 3 3 3 5 4 3 3 1 3 5 4 4 6 2 1 3 9 9 14 16 11 10 11 12 12 10 11 10 8 8 6 5 8 7 6 8 8 8 9 8 7 11 14 15 14 11 13 12 7 5 8 12 13 14 17 17 14 15 16 15 16 15 15 15 15 16
36 37 38 37 35 30 23 17 14 14 16 19 18 12 11 7 0 1 2 9 10 2 3 1 3 6 3 3 1 1 3 7 8 7 4 2 3 2 9 10 12 15 13 10 9 10 11 10 9 8 8 8 8 7 7 7 7 8 9 9 10 11 9 9 12 15 15 11 13 15 7 4 4 8 14 17 18 18 15 15 17 16 16 16 14 14 14 15
36 37 38 37 34 28 21 15 13 14 16 19 15 9 10 5 2 2 4 9 6 1 4 4 2 5 2 4 1 4 9 11 10 7 4 4 4 5 11 11 11 13 14 12 10 10 11 10 8 8 8 8 8 8 7 9 9 8 9 9 11 13 11 9 11 14 16 12 12 15 10 6 6 8 12 17 18 17 15 15 17 16 16 15 14 14 15 16
36 37 37 36 33 27 20 15 12 14 17 18 11 6 9 5 1 3 5 5 2 5 6 5 3 4 1 5 6 10 14 12 8 5 3 4 6 10 12 11 11 14 13 11 11 11 10 9 8 8 9 9 9 10 10 10 11 11 10 9 11 12 12 12 9 10 15 15 12 14 12 11 9 9 11 15 16 16 15 15 16 16 17 16 15 15 15 16
36 36 36 35 32 25 18 14 11 13 18 18 11 5 6 4 3 4 6 4 3 3 2 1 2 1 2 7 10 12 13 9 5 3 2 4 9 12 11 10 12 14 12 10 12 13 10 8 10 10 10 13 14 14 13 10 8 10 11 11 12 11 11 13 9 7 11 15 14 15 12 11 12 12 14 15 14 15 14 14 14 15 15 15 15 15 15 17
35 34 34 33 30 24 16 12 10 11 16 18 13 6 3 4 2 3 3 3 3 4 4 4 4 3 5 7 10 13 10 4 3 5 5 5 11 13 10 10 12 12 10 10 12 13 11 10 11 13 14 16 17 17 16 11 5 7 9 10 13 12 11 14 13 8 7 10 13 16 14 13 15 15 13 12 13 14 14 14 14 15 15 15 16 16 17 17
35 33 32 30 28 23 14 11 10 9 14 16 12 6 4 7 5 3 6 3 2 4 4 3 4 5 6 6 9 12 7 2 7 8 5 4 10 11 9 10 12 10 11 11 11 11 11 12 14 16 16 15 15 16 16 14 10 7 8 8 10 12 10 13 13 8 7 9 10 13 15 14 15 14 11 11 13 14 14 15 15 17 16 15 17 18 17 15
34 33 32 27 25 21 12 9 10 7 10 12 10 8 7 6 5 5 6 4 1 2 3 2 3 4 5 3 4 9 6 0 6 9 6 2 10 10 8 11 11 9 12 12 10 10 11 13 16 17 15 13 13 15 16 16 13 10 8 7 8 9 9 10 10 6 7 8 9 11 12 12 14 14 13 12 12 12 13 15 15 17 17 15 16 17 17 16
33 33 31 26 22 20 11 5 10 9 8 9 9 9 5 4 6 5 5 5 1 2 1 2 2 5 7 2 5 9 5 1 4 7 7 3 8 7 6 11 11 10 13 14 12 10 10 12 17 16 14 14 13 12 15 14 12 10 9 8 8 8 9 10 9 9 9 8 10 12 11 10 12 14 15 13 13 12 13 15 15 16 17 16 16 16 16 18
33 32 32 26 20 18 11 3 7 9 6 5 6 8 5 6 7 5 5 5 2 3 0 3 2 6 9 3 6 9 2 3 3 5 7 5 2 2 7 11 12 11 12 15 16 14 11 8 12 16 15 15 14 12 14 12 9 12 12 11 9 9 10 9 5 7 9 10 12 12 9 9 11 14 15 13 13 13 13 14 15 15 16 15 15 16 17 18
33 32 31 27 19 16 10 3 3 8 5 2 4 8 8 7 6 5 5 4 2 3 3 1 1 5 7 5 6 7 2 0 3 5 5 5 3 3 6 8 9 10 12 17 16 14 13 7 7 15 15 15 15 13 14 12 8 11 14 15 13 10 10 9 6 5 7 10 13 14 11 8 12 16 15 12 13 15 13 13 15 15 14 14 14 16 17 18
33 32 31 27 18 14 9 2 4 10 6 0 7 12 10 8 4 5 4 4 3 4 3 2 1 5 7 6 8 6 4 1 4 4 5 4 5 5 5 5 7 9 11 13 11 9 11 10 9 13 15 16 17 13 14 14 10 8 10 15 17 14 11 10 9 8 7 7 10 13 12 9 10 16 17 15 14 15 14 14 16 14 14 15 14 15 16 17
33 31 30 25 16 12 8 3 8 10 4 4 12 14 10 7 3 6 4 5 3 2 1 1 2 6 8 7 10 5 2 5 4 1 6 5 3 4 6 7 7 8 7 7 8 7 11 14 12 14 15 15 14 12 13 15 11 8 7 10 16 18 15 12 10 9 8 8 6 10 11 10 9 12 15 17 17 17 16 15 15 14 15 17 16 16 17 18
33 31 29 23 12 6 5 5 8 6 5 10 14 13 9 4 6 6 5 4 2 2 1 3 2 6 7 4 7 4 2 8 5 2 8 5 3 3 9 10 8 10 9 8 9 7 11 17 14 14 14 12 11 12 14 16 13 10 6 5 11 16 18 16 11 9 8 9 9 10 11 10 9 10 11 14 17 17 17 17 16 15 17 18 17 18 18 18
32 30 26 19 7 2 4 6 6 5 9 13 13 11 5 3 7 4 5 4 2 2 0 2 1 5 8 2 3 6 3 5 5 6 7 3 2 4 7 7 9 11 12 13 12 7 9 14 14 14 12 10 10 10 12 15 13 11 8 5 8 12 15 16 12 9 9 11 12 13 13 10 9 11 11 11 13 15 15 15 15 16 17 17 17 17 17 17
32 29 21 12 4 2 5 4 4 7 12 13 11 7 2 6 4 5 4 3 2 3 1 3 1 4 9 3 3 6 4 5 6 7 4 1 1 4 4 5 7 10 10 13 14 12 9 8 10 12 12 11 11 10 11 13 12 12 10 9 9 9 10 11 11 9 10 12 14 16 16 13 11 10 11 12 11 13 14 13 13 15 16 16 16 16 16 16
30 24 13 6 4 5 5 4 5 11 13 13 9 2 6 4 4 6 3 1 1 1 1 4 4 4 7 6 4 6 5 5 7 7 3 1 1 1 2 3 5 6 9 10 11 15 15 10 7 9 11 12 12 11 11 11 12 11 10 9 8 8 8 8 9 10 11 12 13 16 18 16 13 10 10 11 12 14 15 14 14 15 15 15 15 15 16 16
28 18 5 5 7 6 5 7 12 15 13 12 7 4 5 4 5 3 1 2 2 2 2 3 6 5 5 4 6 7 4 5 7 7 5 3 1 4 4 3 2 5 7 8 10 12 14 14 11 10 11 13 13 11 10 11 12 11 9 10 9 8 8 8 9 10 12 11 11 15 17 16 15 12 11 12 12 13 14 14 14 14 14 15 15 15 14 15
27 13 1 7 10 5 8 12 14 14 11 10 7 5 4 5 3 1 3 1 0 4 4 2 4 5 4 2 6 7 2 4 8 6 4 3 1 3 5 8 8 6 5 5 8 9 10 13 16 14 10 12 14 11 9 10 11 12 11 10 10 9 8 10 10 9 11 11 12 15 15 14 13 13 15 16 13 11 11 12 12 12 12 12 13 14 14 14
24 7 5 7 11 6 11 14 13 11 9 8 6 4 5 5 0 2 2 4 3 3 3 3 3 3 3 3 6 7 2 4 7 7 4 3 2 2 3 7 10 7 6 6 7 8 9 9 13 17 12 13 17 14 11 10 10 12 12 10 11 9 8 8 8 9 10 9 13 16 13 11 10 8 11 16 16 14 11 10 10 9 10 10 11 13 14 15
21 3 5 5 8 8 12 13 10 9 7 6 5 5 5 2 2 1 2 4 3 1 2 2 4 3 2 4 5 6 4 4 6 6 4 2 2 2 2 6 10 9 6 6 5 6 11 7 4 9 9 12 18 16 13 12 9 10 11 11 12 10 8 7 6 8 8 8 10 13 9 7 6 4 4 9 13 16 16 15 15 14 12 12 10 12 13 14
17 3 4 3 8 12 14 11 9 6 6 5 5 4 1 3 4 3 3 3 2 3 3 2 1 2 1 2 3 5 4 4 5 4 1 1 2 3 4 5 7 9 6 5 4 3 9 6 5 3 7 12 14 15 15 14 9 8 11 12 11 11 10 8 8 8 8 9 8 9 9 8 7 7 8 10 11 13 15 16 18 18 17 16 13 12 13 13
14 6 4 4 14 17 14 10 8 5 6 6 4 0 2 4 5 4 3 3 1 3 5 3 2 3 3 2 2 6 7 4 3 3 1 1 1 4 5 4 6 8 8 6 4 2 4 6 1 3 11 10 6 9 14 15 12 8 10 11 10 11 11 8 8 8 9 10 7 8 12 11 9 8 10 15 17 15 15 15 15 17 17 17 16 14 15 15
13 7 2 9 19 18 13 10 7 5 6 4 2 4 3 3 4 4 3 2 1 2 4 2 2 2 3 4 3 6 7 5 3 4 3 1 1 4 4 3 5 7 8 7 4 2 4 8 6 7 11 8 5 9 12 14 17 14 9 9 11 11 11 9 8 9 10 10 8 10 13 12 10 7 7 14 20 19 18 16 16 17 16 15 15 16 17 17
11 6 1 14 22 16 10 8 6 5 5 2 4 4 3 4 5 4 2 1 1 3 2 1 2 1 1 5 5 4 4 5 5 5 2 0 1 4 5 4 5 7 8 8 6 4 4 7 6 7 9 6 7 11 10 11 16 16 13 10 12 10 9 9 8 8 9 9 8 10 11 9 9 9 8 9 13 17 18 16 15 17 16 14 14 14 16 16
8 4 3 18 24 14 8 7 5 2 1 2 3 4 3 4 5 5 3 2 1 2 3 1 1 2 2 4 5 2 3 5 5 4 2 1 1 3 5 5 7 9 10 8 6 5 4 6 6 7 8 6 8 11 13 13 14 14 13 12 11 11 10 10 9 9 9 8 7 7 8 7 5 8 11 9 8 10 13 13 13 14 15 15 14 14 14 14
6 2 5 19 24 15 8 4 1 2 2 4 5 5 4 2 3 5 4 3 2 1 3 3 2 4 4 4 4 3 4 6 5 4 4 1 1 1 5 7 8 9 9 7 6 3 3 5 8 8 7 8 11 9 10 12 9 9 13 14 14 12 11 10 10 11 10 9 8 7 7 5 3 4 8 9 9 9 10 12 12 12 14 15 14 14 14 14
5 2 7 19 23 15 8 2 5 3 3 4 4 5 4 2 2 3 3 3 1 1 2 2 2 4 4 5 6 5 6 7 5 5 4 1 2 2 6 8 8 8 7 6 5 4 5 5 7 9 8 11 12 7 6 8 8 9 9 12 15 15 13 12 11 10 10 11 10 8 8 5 3 4 4 5 7 9 10 11 12 12 13 14 15 16 15 15
3 4 7 17 19 13 6 5 5 3 5 5 3 5 4 2 3 3 3 3 2 1 2 2 2 4 3 3 6 7 6 5 5 5 5 4 3 3 5 6 7 7 6 4 3 4 5 5 8 9 9 12 16 14 9 7 7 9 9 9 11 13 12 10 7 5 7 11 10 8 8 7 3 3 3 3 4 6 7 7 9 9 10 11 12 13 14 16
3 3 5 15 18 9 3 4 4 4 6 4 4 5 4 4 5 4 4 4 3 2 3 2 2 3 3 4 6 7 6 4 4 3 4 5 1 3 4 5 5 6 5 4 4 5 4 5 7 8 8 9 12 13 11 8 7 10 13 9 8 9 8 6 5 4 5 10 11 10 8 6 4 5 6 7 9 9 8 8 8 8 8 8 8 5 7 10
2 0 3 11 16 8 4 5 4 4 6 5 6 5 2 4 5 5 4 5 4 3 3 1 2 3 4 5 6 5 5 5 4 2 3 5 3 1 2 3 4 6 6 7 7 6 5 5 5 7 9 9 8 8 7 6 6 11 12 9 7 9 9 8 8 8 8 10 11 10 8 5 4 6 6 7 9 10 9 9 8 7 7 8 7 4 4 6
3 2 3 4 8 8 6 5 5 4 4 3 4 4 3 2 3 3 3 3 3 3 3 1 2 4 4 5 6 5 5 5 4 4 4 6 5 2 1 2 6 7 6 8 9 7 6 7 8 10 12 10 7 6 7 7 7 9 10 9 9 8 8 8 10 12 10 9 11 11 10 9 6 5 5 4 6 8 9 8 7 5 6 5 4 4 5 6
2 3 4 2 3 5 5 5 6 5 3 2 2 3 3 3 2 2 1 2 3 3 3 1 3 4 4 5 6 5 5 6 6 6 7 7 7 5 4 6 8 6 4 6 7 6 5 8 11 14 16 17 15 14 12 10 10 10 8 8 8 7 8 11 14 15 10 8 12 13 12 13 10 6 3 1 3 5 5 5 4 2 2 2 0 1 4 6
3 3 4 4 2 4 5 5 6 6 5 4 2 2 3 3 3 2 1 1 2 3 3 2 1 3 4 5 5 5 5 6 6 6 6 6 7 7 7 8 7 4 4 6 6 4 6 8 11 14 17 19 18 16 14 12 11 12 12 11 9 8 10 12 15 16 11 8 9 8 7 10 11 9 7 6 8 9 8 9 9 7 5 5 4 3 5 5
3 4 3 3 1 4 5 3 4 6 7 5 3 4 4 4 4 3 2 3 3 1 3 4 3 4 4 4 5 5 5 6 6 5 6 7 8 8 7 7 5 2 3 6 5 5 6 7 10 12 14 18 19 17 15 14 13 14 14 14 13 11 12 12 13 14 13 11 10 8 9 10 9 7 9 10 12 13 11 11 11 9 8 8 7 7 7 6
4 3 3 2 4 5 4 4 3 5 6 4 3 4 4 3 4 3 3 4 4 1 3 6 5 5 5 4 5 6 5 6 8 8 8 9 8 7 6 5 4 3 5 5 4 5 6 6 9 10 10 14 18 17 16 15 14 15 16 16 15 14 13 13 12 12 13 12 11 10 11 12 10 7 10 10 11 12 13 12 11 9 9 10 10 10 9 8
5 4 2 1 3 2 2 4 3 2 4 5 4 4 3 3 5 4 3 3 4 3 4 6 6 6 5 4 5 6 6 7 9 11 11 10 10 8 6 6 7 7 7 6 5 6 6 7 9 9 8 11 14 15 16 15 15 17 18 17 17 15 13 12 11 11 13 13 12 12 12 10 8 8 9 9 10 12 13 12 11 9 10 11 11 12 12 11
5 4 2 1 2 1 2 3 2 2 3 5 5 4 4 4 4 4 3 1 2 4 4 6 7 6 6 5 5 6 8 9 11 12 11 12 13 12 10 11 13 11 9 8 7 7 7 7 7 7 8 9 12 14 14 12 13 14 14 16 18 16 13 13 11 6 6 9 10 10 7 3 5 9 9 8 9 11 11 10 10 10 11 12 12 13 14 14
Wind_Direction
15 12 10 7 5 3 1 360 358 357 355 354 354 354 351 347 343 339 337 331 327 317 310 307 306 310 311 316 316 309 312 304 277 243 240 261 284 261 267 210 189 173 157 162 165 163 166 176 177 175 182 184 207 201 180 200 216 220 234 243 251 229 84 58 48 42 58 130 139 160 177 175 157 161 152 157 167 147 148 139 126 122 97 103 125 139 148 154
14 12 10 7 4 2 360 358 358 356 354 352 352 353 350 347 343 340 338 335 331 322 314 306 303 306 307 320 319 308 312 282 262 255 250 280 341 305 248 194 184 173 162 170 172 169 170 174 173 176 186 183 188 182 176 186 200 216 233 242 250 77 74 55 41 32 5 97 139 169 182 185 165 159 169 177 164 154 156 145 139 125 112 116 131 142 149 155
13 11 10 8 5 1 358 357 356 355 353 351 351 351 348 346 344 341 340 339 334 326 318 308 304 303 305 324 323 316 314 277 263 254 259 327 327 315 237 188 180 173 171 179 179 176 176 173 171 175 187 195 188 182 188 184 192 216 235 244 223 88 93 75 36 37 26 40 162 175 182 192 166 158 181 184 164 169 175 157 155 144 132 135 143 150 152 158
12 10 9 8 5 1 358 355 354 354 352 351 350 349 347 344 343 341 340 340 335 329 324 315 307 302 306 329 339 331 295 268 251 62 3 321 303 297 220 181 175 175 179 185 182 184 183 171 172 182 193 201 191 191 202 186 186 207 223 246 54 120 169 105 73 60 45 9 198 175 181 190 170 167 187 187 175 182 185 170 168 154 143 145 151 157 158 161
11 9 8 7 4 1 357 355 354 353 351 351 348 347 347 344 342 340 339 338 332 328 327 320 311 308 312 338 6 307 270 252 92 19 351 328 291 272 199 173 173 177 182 186 183 186 184 172 178 191 203 207 186 193 212 197 206 227 219 242 275 199 173 115 116 54 28 13 120 175 186 183 171 181 195 194 182 187 184 170 167 153 146 151 157 161 163 165
9 8 7 5 3 360 357 354 353 352 350 350 347 345 345 343 341 338 336 335 327 327 328 323 319 321 330 351 14 245 264 312 64 5 1 2 320 258 175 167 172 178 183 183 180 183 181 177 185 194 209 218 198 202 215 199 213 243 221 229 239 235 234 172 187 12 359 11 91 176 187 178 182 190 198 204 183 46 141 155 153 151 150 154 158 164 167 168
8 7 5 3 1 359 356 354 353 351 349 348 345 342 341 339 339 336 334 329 322 327 326 325 341 341 352 359 279 229 256 323 59 11 6 11 360 164 158 163 171 177 182 180 178 182 179 182 191 197 207 217 210 211 211 195 210 238 245 234 232 239 235 219 229 288 310 307 330 197 185 189 200 191 171 205 216 89 113 138 145 147 151 156 159 167 170 169
7 6 4 1 359 357 355 353 352 352 350 346 343 339 335 333 334 333 331 324 319 325 321 334 16 10 13 347 275 259 253 91 64 17 9 17 44 139 150 161 173 179 184 183 181 182 182 187 193 197 207 215 213 209 200 198 212 228 248 255 244 244 237 233 242 257 270 274 280 217 203 199 205 202 162 188 218 159 128 135 144 147 152 159 163 167 169 170
5 4 2 359 357 356 354 352 352 352 350 344 340 335 329 328 328 329 327 321 321 321 315 12 37 28 27 274 281 288 69 94 55 8 13 34 96 142 152 164 177 182 187 189 187 187 187 191 196 199 218 221 209 206 200 208 216 220 238 251 253 249 238 235 234 237 249 247 240 216 211 200 198 214 191 186 195 165 145 144 148 152 157 163 166 168 169 172
4 3 0 357 355 355 354 351 352 353 349 343 338 333 328 326 326 327 325 322 325 324 325 40 26 31 267 263 282 284 70 63 331 357 13 59 126 156 169 175 180 186 190 191 191 193 193 195 197 201 247 238 210 210 203 211 225 200 238 252 254 258 251 243 243 239 246 242 236 230 214 193 183 203 205 179 174 163 154 153 154 158 162 165 168 169 171 174
3 2 359 356 354 354 352 350 351 351 348 343 338 332 329 329 328 328 328 332 357 34 9 305 355 151 256 270 282 307 48 356 321 351 7 61 154 178 186 186 186 192 193 192 194 197 199 201 197 197 245 234 204 216 214 224 250 258 260 266 251 252 249 241 243 237 238 233 218 224 226 200 179 199 218 166 159 166 163 158 160 165 166 167 170 169 172 176
3 1 358 355 353 353 351 348 349 349 349 344 338 334 334 338 338 337 343 18 48 5 330 276 250 240 262 258 272 344 0 317 320 349 360 21 203 198 198 197 195 199 199 197 198 198 203 204 200 203 208 178 200 213 225 227 242 255 261 273 258 247 242 228 226 222 219 215 189 207 229 208 190 205 210 161 157 170 169 163 165 169 169 169 171 170 173 177
2 1 358 355 353 353 350 347 349 349 349 344 338 339 344 350 347 353 37 60 6 338 305 255 227 227 260 258 58 358 352 328 322 345 354 3 205 197 204 204 200 205 209 208 203 198 204 205 206 213 218 244 215 182 306 225 224 245 244 258 264 253 237 216 210 208 208 205 182 203 227 200 199 209 195 162 166 176 172 170 170 171 170 171 173 171 176 177
0 0 358 355 354 353 350 348 350 351 350 344 340 343 352 350 343 19 93 8 345 335 298 198 181 223 255 138 86 20 25 8 301 312 344 341 132 174 189 199 200 203 213 220 213 201 203 209 215 222 226 244 261 337 263 223 205 230 231 238 247 250 231 200 197 200 200 194 186 209 236 197 188 194 189 171 173 180 177 176 174 173 173 173 176 174 177 180
360 359 358 356 355 354 352 352 353 354 354 344 340 347 351 344 338 142 147 343 338 346 99 121 190 238 248 125 115 301 13 356 300 310 331 284 261 179 175 185 195 196 205 216 211 198 199 207 213 223 218 224 261 257 228 219 206 214 220 224 223 236 228 188 187 197 200 187 185 208 238 225 177 166 182 181 177 185 183 180 178 177 178 175 178 178 179 182
359 359 357 356 356 355 354 356 358 358 357 346 341 350 350 341 345 208 287 340 344 53 113 176 219 259 278 72 103 247 337 331 322 315 304 229 264 194 159 164 177 187 200 202 195 190 194 203 209 223 221 208 223 233 223 217 213 207 216 223 213 218 220 192 184 194 203 193 188 208 227 242 182 153 182 185 183 190 187 185 184 180 181 178 180 181 181 183
359 358 357 357 357 357 356 1 2 2 2 349 342 354 356 348 168 220 311 343 351 153 252 266 268 259 261 57 327 317 339 333 330 311 267 233 236 175 150 156 165 174 186 190 189 188 190 199 205 215 222 218 213 217 220 212 207 201 208 225 220 217 219 203 185 187 203 207 199 210 217 216 187 150 185 191 184 192 191 188 188 183 182 181 181 184 183 184
358 358 356 357 358 358 359 4 6 6 5 356 349 4 4 360 172 275 305 324 283 230 245 252 258 236 167 30 347 341 342 336 338 326 274 216 194 171 158 158 161 165 170 177 188 190 189 194 202 209 211 216 213 207 213 211 209 203 196 215 221 217 223 213 190 176 199 212 209 211 212 220 211 158 185 204 188 192 198 191 190 187 184 182 183 186 186 187
357 358 356 357 358 358 0 6 11 9 10 11 7 351 347 339 220 247 267 261 264 258 252 300 312 292 356 356 351 345 336 329 337 13 66 162 169 164 161 161 164 169 170 171 183 188 188 191 201 211 207 206 208 206 213 216 220 219 206 213 218 215 222 217 200 164 194 216 219 220 211 213 228 199 189 202 194 195 202 194 191 189 185 184 185 189 188 190
358 358 356 355 357 359 0 10 17 9 17 22 4 322 311 329 250 209 295 302 3 351 331 351 349 342 342 343 350 343 334 345 58 62 73 149 167 161 156 165 171 180 188 176 175 183 191 201 204 210 210 206 206 209 219 226 235 248 230 217 220 221 218 215 210 182 191 224 221 225 224 208 221 220 195 190 194 200 203 197 194 191 189 187 188 190 190 192
358 358 355 353 355 358 360 13 18 8 21 26 11 6 39 7 351 3 344 315 74 358 317 344 322 313 333 327 345 348 337 68 69 67 84 160 179 170 157 169 177 186 200 184 168 176 194 212 213 211 213 211 209 210 220 228 229 244 246 224 221 225 220 216 213 191 198 232 228 225 234 226 223 229 214 193 197 203 203 201 196 194 193 190 192 192 189 189
357 357 355 350 351 356 354 13 21 8 16 23 27 45 57 25 347 322 316 280 107 4 295 309 281 310 342 302 345 341 298 242 64 73 75 198 205 197 172 180 194 190 191 188 174 180 200 220 219 211 213 215 215 213 214 225 230 234 241 233 225 221 223 222 209 193 206 230 236 226 233 237 228 231 232 213 204 206 206 206 200 196 195 193 194 191 187 186
355 355 353 347 347 350 344 9 21 14 14 16 31 43 38 4 328 286 268 275 256 169 262 356 324 353 8 29 3 330 296 47 36 59 39 286 216 219 208 193 205 200 190 194 192 192 203 218 219 210 208 212 214 210 208 215 226 231 232 235 233 218 221 227 202 199 221 232 242 241 240 239 228 225 230 224 211 206 208 211 206 200 199 197 195 191 188 186
354 353 351 346 340 345 342 333 10 15 11 2 35 38 2 332 322 277 250 272 247 163 95 17 359 3 8 357 326 319 339 50 342 35 17 305 225 217 231 209 210 210 199 201 205 212 216 213 214 210 204 206 205 200 204 212 221 227 231 233 235 222 224 238 212 194 220 230 240 248 251 244 231 223 222 219 212 210 211 210 207 204 202 200 196 193 192 189
352 350 350 345 336 343 336 267 4 4 333 318 35 9 339 331 319 258 251 260 204 158 156 179 229 14 356 309 317 323 290 50 5 27 8 316 300 246 227 219 220 218 203 203 213 223 223 213 196 201 197 199 207 206 208 215 222 224 225 229 236 237 229 236 244 221 221 224 220 226 242 243 228 226 225 216 210 211 211 207 206 203 198 198 197 195 194 193
350 350 347 342 335 336 322 250 10 344 309 58 8 342 330 331 302 221 246 253 196 145 150 221 300 20 358 331 345 328 228 101 39 3 358 345 289 260 240 222 215 229 217 203 217 232 226 211 180 190 195 198 212 218 210 211 227 230 214 219 230 240 241 236 239 234 233 236 206 204 232 248 226 223 224 219 214 210 206 204 204 200 195 197 199 196 195 194
349 349 344 339 337 334 328 335 346 333 316 349 341 331 326 323 249 189 241 244 189 110 98 19 8 4 357 346 340 315 226 351 351 52 17 358 283 247 243 228 204 229 230 203 219 221 217 212 186 192 205 203 211 218 206 204 221 233 209 210 222 230 236 238 243 239 243 258 219 193 225 249 239 225 219 217 217 211 205 204 201 197 197 199 200 198 196 195
349 348 341 337 333 326 333 329 326 336 351 333 325 324 325 307 185 186 255 244 137 73 34 41 19 333 333 330 347 3 31 338 313 46 11 328 262 232 237 240 233 228 212 207 224 192 198 217 203 198 210 209 210 214 209 206 219 231 221 221 224 225 231 235 243 247 245 255 242 209 215 236 243 232 222 219 218 212 209 209 204 200 200 200 202 202 198 195
349 347 339 337 339 346 341 317 303 324 336 325 322 326 327 176 180 210 263 249 105 101 65 9 322 327 327 289 41 35 35 353 342 347 339 290 239 245 247 271 271 249 217 214 233 208 190 217 213 205 213 217 213 211 211 210 219 230 224 226 230 227 230 230 235 246 245 247 244 225 214 228 244 230 219 219 216 212 212 213 208 203 201 199 202 204 199 195
349 346 342 349 17 18 331 283 265 319 328 324 327 330 194 171 206 236 235 228 86 92 48 4 337 329 337 333 75 32 23 27 1 332 310 179 194 231 258 289 271 262 236 218 232 240 226 214 214 215 218 226 221 215 219 216 219 229 223 219 224 223 224 225 228 237 243 241 239 233 225 232 247 233 219 216 212 214 217 214 208 206 202 198 200 203 197 193
349 346 352 21 15 349 319 270 313 328 327 329 331 287 195 194 247 249 236 165 73 96 132 43 29 353 355 11 36 16 16 33 9 352 356 6 183 218 283 249 225 247 243 223 225 236 235 223 212 214 215 225 230 222 219 214 216 226 221 212 218 214 208 217 218 220 235 239 233 233 232 234 242 235 223 219 208 212 222 217 208 205 202 197 198 201 198 194
349 346 14 44 5 347 311 301 321 322 325 330 312 228 215 226 230 243 64 159 205 53 73 34 23 14 359 11 28 13 3 25 13 3 2 344 20 43 17 5 324 247 230 227 217 216 229 229 220 214 207 214 224 219 212 209 212 219 213 207 213 206 195 206 210 212 229 236 228 229 230 232 242 241 232 231 218 210 220 221 213 205 202 198 196 198 198 194
349 341 133 29 2 335 311 315 319 316 320 315 277 223 239 248 231 15 49 84 3 45 44 8 14 10 348 349 25 12 357 34 11 352 354 325 298 81 71 38 1 294 258 260 234 212 219 223 219 219 207 204 214 214 208 203 205 210 206 204 209 202 195 204 209 215 229 232 222 224 232 236 243 242 232 232 231 221 216 216 214 211 210 205 197 197 196 192
347 326 188 8 353 327 323 320 315 311 306 292 259 216 234 244 137 65 60 58 66 82 55 16 342 354 32 49 29 13 10 55 19 343 333 294 258 108 86 42 16 329 297 285 258 231 229 223 210 212 203 196 208 217 222 213 204 207 207 211 217 213 209 209 209 215 226 233 216 211 224 238 238 240 230 227 228 226 221 214 213 216 217 213 202 198 196 193
351 336 193 345 340 326 326 316 308 304 286 274 252 227 238 245 68 77 66 56 70 89 57 10 303 288 95 79 55 45 21 22 18 340 318 322 334 20 24 23 19 360 317 273 266 249 247 248 180 197 202 195 204 213 221 225 214 199 202 215 218 218 226 231 236 234 235 245 222 204 212 233 235 234 217 223 225 222 223 225 225 223 218 217 214 204 199 195
353 337 217 315 338 334 332 321 315 299 263 260 246 227 252 38 32 24 32 15 1 1 325 238 309 318 62 62 58 61 23 336 354 334 291 49 11 31 38 31 21 11 355 302 296 283 248 239 88 122 202 201 210 212 209 220 225 193 197 216 218 220 231 239 244 246 248 249 229 205 214 221 235 238 214 218 229 222 221 224 225 224 219 219 221 213 203 198
342 317 242 344 349 341 337 329 317 283 245 258 256 209 63 53 28 25 28 355 1 354 308 271 58 357 338 347 14 25 358 321 350 345 309 147 100 46 34 43 36 13 4 337 302 344 291 269 337 216 211 198 216 226 211 220 237 221 202 204 208 222 231 237 241 228 226 239 227 211 221 218 220 230 213 215 224 224 222 220 220 221 219 220 222 214 207 203
320 297 242 5 353 342 339 334 312 258 241 245 125 81 64 75 50 39 39 7 318 304 303 315 33 2 328 332 352 12 345 327 5 349 311 246 123 55 24 18 31 7 356 337 288 338 325 279 263 229 218 195 182 218 221 221 230 243 244 207 198 215 219 216 231 227 221 233 230 220 228 227 221 221 206 211 219 222 222 221 220 220 218 219 217 211 207 205
297 270 173 7 353 347 348 328 287 243 236 210 120 103 79 85 70 50 45 39 280 297 318 6 4 334 18 344 337 359 352 341 345 330 316 340 76 63 39 359 354 351 346 329 293 306 306 271 250 207 204 204 195 208 221 214 214 233 256 238 211 216 219 209 219 232 231 238 235 222 225 229 226 226 226 217 215 219 220 219 220 221 220 217 211 209 208 204
292 254 56 5 351 350 346 301 265 236 191 83 85 107 102 94 78 59 42 1 298 309 335 20 324 300 10 343 308 330 357 327 318 310 309 343 9 80 58 14 344 342 336 311 279 284 276 261 257 212 192 215 221 212 220 219 208 213 226 230 221 215 215 217 221 226 232 241 239 226 226 226 214 217 225 221 208 213 219 222 222 219 220 216 209 210 209 203
294 248 32 358 348 340 321 289 87 67 106 91 81 95 86 55 53 67 60 9 350 9 344 335 318 318 332 316 298 333 327 296 295 294 279 282 234 110 63 25 345 338 332 297 259 270 283 258 256 243 220 221 217 212 231 240 241 231 218 216 222 220 214 220 225 220 225 238 239 237 241 232 165 177 209 214 215 220 222 226 229 224 222 220 214 213 209 201
307 7 359 346 343 330 311 89 87 46 88 90 77 81 64 24 28 47 52 17 6 56 338 309 322 317 312 313 314 319 302 287 287 281 270 274 285 326 40 20 340 329 327 296 277 327 330 284 256 250 252 253 250 263 290 284 285 278 244 221 221 220 216 221 225 220 222 230 233 243 249 235 131 126 175 198 214 227 227 229 235 231 228 226 220 216 209 200
8 23 353 347 342 317 296 99 98 69 84 93 95 81 59 42 42 34 36 6 335 319 291 288 318 306 305 323 307 298 299 292 281 277 277 275 283 2 15 356 336 326 317 298 305 349 327 261 245 247 254 268 271 272 274 274 274 259 243 232 227 225 226 232 244 252 237 226 219 226 238 235 201 176 207 228 237 244 241 240 245 242 239 239 231 222 211 202
17 6 9 6 357 321 279 78 86 95 92 106 111 93 79 59 36 22 37 22 357 310 286 302 319 299 315 322 298 299 310 296 278 283 283 280 309 44 348 326 337 329 328 349 350 343 313 257 247 248 240 237 244 244 233 227 240 237 229 227 231 240 251 255 260 270 253 238 230 225 227 228 214 201 215 235 245 249 248 244 244 243 244 251 253 244 217 203
308 291 65 23 20 27 59 47 53 99 101 103 92 76 88 87 48 13 21 31 19 336 299 315 315 297 315 312 291 294 294 279 283 293 282 284 295 11 344 329 325 313 334 351 329 302 282 274 268 253 238 220 213 223 230 231 234 228 225 225 228 235 243 246 242 234 230 238 241 236 232 222 189 182 197 224 242 248 249 248 245 242 242 247 251 241 206 194
321 17 39 38 43 56 68 49 39 72 92 95 83 55 24 61 78 40 353 7 29 354 314 325 309 290 298 303 295 292 283 277 286 292 294 297 299 326 17 302 296 302 325 325 299 278 267 266 265 261 258 260 277 299 315 320 291 243 223 220 218 221 232 239 237 232 230 237 236 233 244 250 224 179 179 213 239 240 242 247 243 237 240 240 228 214 204 198
343 18 18 12 60 67 71 61 47 56 64 27 33 47 22 10 43 66 358 350 12 333 297 308 318 304 310 313 303 296 296 294 286 287 296 301 306 313 299 282 284 286 293 286 271 265 268 259 255 259 263 270 281 291 296 300 290 277 263 243 222 212 220 226 229 231 235 245 235 225 235 248 245 235 223 254 295 268 268 292 307 309 296 291 240 212 226 216
19 49 28 316 309 50 52 45 47 62 65 52 50 38 20 17 12 13 25 317 310 309 296 259 279 316 328 321 303 296 302 297 286 291 306 307 307 308 299 291 285 265 248 259 257 261 271 265 260 264 269 274 279 282 283 279 274 275 276 268 251 230 222 224 228 230 231 241 244 243 256 252 245 255 279 332 341 325 327 335 329 323 322 329 330 296 266 243
40 66 48 318 334 59 58 47 47 57 52 39 50 42 21 24 19 356 320 287 268 295 312 288 288 318 316 302 291 289 299 297 290 301 310 304 302 303 301 293 280 256 262 265 260 263 265 266 271 272 275 280 280 276 272 268 266 266 266 263 259 249 235 229 230 233 235 243 249 266 292 282 257 274 312 327 325 322 324 325 320 319 329 334 324 306 293 286
43 67 46 29 77 73 70 62 44 60 57 27 32 49 27 16 17 356 313 294 280 266 307 302 309 314 303 289 276 274 287 294 286 288 294 294 293 293 296 294 282 280 285 276 264 261 259 268 282 287 285 280 279 276 266 257 257 261 262 260 256 249 239 233 230 229 233 238 239 245 265 268 262 304 331 318 308 310 310 314 321 331 341 337 324 317 312 311
53 64 14 352 78 56 42 62 37 34 56 36 34 44 22 24 19 339 312 308 292 293 319 314 313 311 296 279 272 280 295 290 279 279 281 280 281 282 281 280 281 282 281 275 267 255 253 270 282 284 279 274 274 270 260 253 252 253 254 253 247 242 236 230 227 229 232 231 225 225 234 247 270 323 334 313 298 294 291 304 324 335 341 338 327 323 321 318
49 70 33 336 74 45 8 59 31 350 44 41 36 27 1 19 21 337 335 53 265 286 318 310 306 307 294 285 294 307 309 296 285 283 280 275 273 272 267 263 264 267 267 269 270 257 252 264 274 272 271 272 271 265 257 253 249 245 244 242 238 236 236 229 218 214 234 230 223 225 229 263 326 333 329 321 313 300 294 306 323 329 333 331 324 320 319 318